This is the latest recevied weather packets stored in our database for station/object N1ORT. If no packets are shown the sender has not sent any weather packets the latest 10 day(s).
| Time | Temp. | Humidity | Pressure | Rain* | Wind** | Luminosity | Snow |
|---|---|---|---|---|---|---|---|
| 1777986515 | 16.67° C | 67% | 1007.7 hPa | 0 mm | - | 137 W/m² | - |
| 1777986213 | 17.22° C | 65% | 1007.7 hPa | 0 mm | - | 182 W/m² | - |
| 1777985910 | 16.11° C | 68% | 1007.6 hPa | 0 mm | - | 347 W/m² | - |
| 1777985607 | 15.56° C | 68% | 1007.5 hPa | 0 mm | - | 176 W/m² | - |
| 1777985304 | 15.56° C | 69% | 1007.4 hPa | 0 mm | - | 149 W/m² | - |
| 1777985001 | 15.56° C | 70% | 1007.5 hPa | 0 mm | - | 215 W/m² | - |
| 1777984696 | 15.56° C | 69% | 1007.7 hPa | 0 mm | - | 170 W/m² | - |
| 1777984393 | 15.56° C | 69% | 1007.7 hPa | 0 mm | - | 145 W/m² | - |
| 1777984089 | 15.56° C | 69% | 1007.7 hPa | 0 mm | - | 139 W/m² | - |
| 1777983787 | 15.56° C | 68% | 1007.7 hPa | 0 mm | - | 115 W/m² | - |
| 1777983483 | 15.56° C | 67% | 1007.7 hPa | 0 mm | - | 127 W/m² | - |
| 1777983180 | 16.11° C | 67% | 1007.9 hPa | 0 mm | - | 152 W/m² | - |
| 1777982876 | 16.11° C | 66% | 1007.7 hPa | 0 mm | - | 337 W/m² | - |
| 1777982573 | 16.11° C | 67% | 1007.5 hPa | 0 mm | - | 352 W/m² | - |
| 1777982271 | 16.11° C | 68% | 1007.4 hPa | 0 mm | - | 272 W/m² | - |
| 1777981969 | 15.56° C | 68% | 1007.5 hPa | 0 mm | - | 219 W/m² | - |
| 1777981666 | 15° C | 69% | 1007.3 hPa | 0 mm | - | 165 W/m² | - |
| 1777981362 | 15° C | 70% | 1007.3 hPa | 0 mm | - | 193 W/m² | - |
| 1777981059 | 14.44° C | 71% | 1007.4 hPa | 0 mm | - | 107 W/m² | - |
| 1777980756 | 14.44° C | 70% | 1007.3 hPa | 0 mm | - | 118 W/m² | - |
| 1777980451 | 14.44° C | 71% | 1007.5 hPa | 0 mm | - | 117 W/m² | - |
| 1777980150 | 14.44° C | 71% | 1007.4 hPa | 0 mm | - | 110 W/m² | - |
| 1777979849 | 13.89° C | 72% | 1007.7 hPa | 0 mm | - | 75 W/m² | - |
| 1777979546 | 13.89° C | 71% | 1007.5 hPa | 0 mm | - | 81 W/m² | - |
| 1777979242 | 13.89° C | 72% | 1007.4 hPa | 0 mm | - | 77 W/m² | - |
* Rain latest hour (hover to see other rain measurements)
** Current wind speed in m/s (hover to see current wind gust speed)